CAPE
971 1537 2349 2328 2438 2292 1817 1499 1705 1667 1632 2241 2546 2615 2571 2363 2605 2509 2702 2706 2315 1913 1726 1798 1935 2008 2367 2606 2614 2485 1901 2554 2354 2383 2180 1933 2421 3033 3209 2310 1354 1364 2354
1072 1460 2542 2499 2588 2492 2420 2329 2328 2089 1604 1839 2290 2396 2189 2189 2205 2353 2365 1811 1705 1610 1540 1669 1675 1746 2093 2298 2538 2599 2768 2241 2945 2211 2076 2305 2249 2130 2580 1862 2559 2523 1539
1119 1501 2036 2524 2530 2600 2477 2474 2554 2453 1925 2110 2237 1959 1763 1866 2009 2236 2123 1767 1628 1477 1410 1594 1738 1363 1540 1985 2412 2217 2287 2487 2694 2238 2117 1523 2027 2724 2899 2843 2723 2787 2429
1070 1218 1798 2378 2550 2601 2648 2615 2664 2309 1681 2275 2137 2424 1598 1398 1492 1447 1519 1506 1727 1540 1430 1496 1791 1724 1435 1662 1952 2223 2052 1907 1946 2155 1035 1558 1734 2666 2873 2936 3132 2612 1922
833 1135 1672 2405 2494 2665 2687 2733 2600 2315 1945 2063 2121 2026 1749 1463 1490 1370 1124 1091 1220 1331 1317 1376 1642 1874 1557 1766 1795 1853 1817 1621 1152 515 298 925 1039 2058 2781 2745 2614 2440 2635
982 1342 2080 2634 2445 2805 2765 2738 2666 2027 1686 1994 1508 1248 1570 1572 1352 997 1194 844 1002 1163 1188 1416 1447 1592 1636 1804 1627 1493 1145 537 260 184 58 463 738 1637 2086 2254 2341 2588 2721
1128 1489 1663 2567 2501 2499 2407 1811 1628 1582 793 871 218 106 446 68 119 487 407 583 694 945 1113 1336 1374 1574 1533 1554 1721 1205 873 939 29 94 153 49 381 1062 697 1828 2209 2555 2617
1221 1509 1493 2140 2348 2267 2029 1280 1421 800 673 459 599 470 470 235 174 208 77 223 867 1048 1362 1482 1526 1593 1642 1651 1772 1461 764 305 83 39 41 122 334 1105 798 1867 1980 1782 1998
1210 1145 1345 1337 1505 1746 2005 1488 1260 1054 777 777 170 18 52 426 518 229 223 316 1001 1095 1228 1477 1446 1739 1693 1700 1628 1191 568 398 179 43 211 264 702 856 695 1532 1973 1904 1987
671 437 289 978 625 374 629 904 939 1097 917 176 113 115 201 54 43 163 177 258 1074 1329 1359 1683 1642 1372 1569 1636 1463 1347 1348 1251 549 529 295 11 898 840 705 1441 1712 1997 1710
435 54 142 627 331 76 34 114 352 438 311 136 121 229 150 40 41 177 139 385 1027 1405 1655 1064 1586 1497 1764 1592 1573 1455 1249 839 821 567 177 0 327 991 1141 830 1331 1834 1835
527 48 80 425 572 106 178 119 58 100 33 9 14 24 65 67 130 304 455 692 732 1362 1930 1215 1373 1661 1809 892 528 1255 845 579 287 214 30 0 80 1120 770 1650 1403 1313 1505
658 686 204 212 432 4 17 369 103 136 24 2 0 1 12 3 0 16 84 171 338 1056 965 676 327 71 121 977 761 967 607 924 236 102 174 185 82 923 489 583 822 839 937
661 603 539 663 482 20 145 382 196 64 53 16 2 24 48 10 1 2 139 163 267 159 18 1 0 36 30 801 1009 1082 487 626 356 148 406 1853 1242 557 345 605 581 740 748
484 655 643 1044 954 423 530 423 53 0 39 0 3 0 87 49 25 62 132 200 249 107 123 94 68 171 296 821 1013 1033 431 212 108 200 278 1120 1408 1175 833 741 502 617 858
602 710 529 898 675 634 664 502 42 66 67 18 0 0 40 113 42 155 260 395 369 170 5 0 60 412 705 1085 1158 917 581 323 66 69 109 527 1423 965 1108 1110 1200 1054 1067
579 497 911 1103 988 805 513 670 373 353 319 225 109 177 54 111 137 173 256 235 267 44 103 0 103 33 367 566 392 771 1031 277 220 129 228 266 719 1046 1625 1898 1952 1913 1440
812 773 958 1311 756 622 531 467 522 652 262 237 318 227 144 58 148 174 279 562 264 703 257 865 22 461 300 350 259 465 965 967 247 69 103 234 297 743 1574 1830 2119 2151 1728
768 1011 710 714 794 728 689 709 414 363 349 443 393 253 130 77 447 221 478 622 491 189 4 196 424 307 364 290 28 852 626 907 56 416 271 210 237 436 882 1761 1900 1861 1155
740 960 999 1059 926 794 1086 772 556 395 313 322 308 234 216 317 285 179 836 563 238 769 47 209 146 281 10 5 1038 1434 737 585 272 128 209 368 260 501 534 878 1605 1520 2101
1270 1183 1000 1127 1165 808 915 500 489 284 296 404 274 137 353 304 416 578 731 732 649 976 202 0 928 78 218 31 93 383 195 756 782 303 38 83 327 459 323 440 824 900 1413
1259 1113 1074 958 970 693 731 439 311 398 182 7 337 83 594 579 595 653 732 258 440 923 83 332 1073 1044 310 172 0 23 114 273 440 526 504 31 240 319 486 597 786 605 343
1165 1249 1145 1476 894 949 769 512 468 380 378 155 330 402 679 806 534 873 589 104 66 1029 1080 1135 939 66 253 390 0 100 31 137 11 370 446 445 71 210 537 415 617 488 245
1393 1539 1589 1886 1394 1458 1068 476 420 370 215 164 196 143 222 150 505 1151 154 0 0 497 26 40 1139 257 503 21 228 247 275 11 0 309 461 500 228 207 512 460 441 274 229
1401 1924 1793 1938 1648 1695 1210 580 471 528 276 353 380 212 442 204 498 1400 1270 858 1144 1070 20 40 558 1310 890 491 76 268 1012 233 112 117 322 196 548 173 480 40 420 268 322
760 2231 2345 2298 2054 1698 1382 1159 675 684 485 437 312 389 538 655 815 1201 1454 1487 1375 1215 1093 1177 1530 1555 1259 1309 1194 972 410 401 123 201 36 119 262 82 0 32 740 358 492
CIN
-0 -0 -0 -0 -0 -0 -0 -1 -1 -4 -4 -0 -0 -0 -0 -0 -0 -0 -0 -0 -0 -0 -0 -2 -1 -6 -0 -0 -0 -1 -17 -1 -7 -2 -3 -2 -0 -0 -0 -1 -36 -14 -0
-27 -1 -0 -0 -0 -0 -0 -0 -0 -0 -0 -0 -0 -0 -0 -0 -0 -0 -0 -2 -0 -0 -0 -2 -10 -6 -0 -0 -0 -0 -0 -0 -0 -0 -0 -0 -0 -0 -0 -23 -0 -0 -10
-33 -0 -0 -0 -0 -0 -0 -0 -0 -0 -0 -0 -0 -0 -0 -0 -0 -0 -0 -0 -0 -0 -0 -0 -0 -15 -11 -0 -0 -0 -0 -0 -0 -0 -0 -16 -10 -0 -0 -0 -0 -0 -0
-57 -3 -0 -0 -0 -0 -0 -0 -0 -0 -0 -0 -0 -0 -0 -1 -0 -0 -0 -0 -0 -0 -0 -0 -0 -0 -6 -2 -0 -0 -0 -3 -2 -0 -36 -20 -0 -0 -0 -0 -0 -0 -11
-70 -6 -0 -0 -0 -0 -0 -0 -0 -0 -0 -0 -0 -0 -0 -0 -0 -0 -0 -0 -0 -1 -0 -1 -0 -0 -0 -0 -0 -0 -0 -3 -8 -62 -96 -30 -40 -0 -0 -0 -0 -0 -0
-50 -4 -0 -0 -0 -0 -0 -0 -0 -0 -0 -0 -0 -0 -1 -1 -2 -4 -1 -4 -3 -0 -0 -1 -0 -0 -0 -0 -0 -4 -34 -60 -86 -105 -127 -42 -41 -1 -1 -0 -0 -0 -0
-40 -1 -0 -0 -0 -0 -0 -0 -0 -0 -16 -18 -65 -66 -31 -77 -39 -12 -11 -7 -4 -2 -0 -0 -0 -0 -0 -0 -0 -16 -20 -27 -160 -122 -92 -110 -54 -5 -10 -0 -0 -0 -0
-44 -1 -0 -0 -0 -0 -0 -0 -0 -5 -26 -28 -28 -28 -22 -34 -31 -28 -48 -37 -2 -2 -0 -0 -0 -0 -0 -0 -0 -7 -28 -50 -77 -136 -126 -94 -54 -3 -6 -5 -0 -0 -1
-47 -32 -2 -1 -1 -0 -0 -0 -0 -0 -9 -7 -51 -89 -80 -35 -29 -49 -44 -29 -2 -3 -1 -0 -1 -0 -0 -0 -5 -10 -28 -43 -97 -188 -97 -76 -28 -4 -6 -5 -3 -0 -0
-85 -75 -55 -11 -14 -23 -4 -0 -0 -0 -0 -32 -41 -31 -49 -81 -61 -47 -45 -31 -2 -0 -0 -0 -0 -0 -0 -1 -0 -0 -3 -2 -38 -63 -100 -218 -15 -1 -4 -0 -0 -0 -4
-62 -119 -74 -10 -22 -81 -108 -38 -10 -1 -0 -8 -46 -23 -51 -135 -101 -55 -43 -25 -1 -0 -0 -0 -0 -0 -1 -5 -1 -0 -0 -27 -51 -71 -156 -0 -93 -0 -0 -1 -0 -0 -0
-46 -65 -89 -23 -9 -69 -35 -52 -73 -43 -69 -99 -139 -157 -84 -80 -81 -44 -27 -15 -2 -0 -0 -2 -0 -0 -1 -42 -110 -28 -51 -55 -51 -121 -239 -0 -118 -5 -0 -0 -0 -0 -0
-47 -24 -89 -57 -40 -138 -108 -21 -82 -66 -139 -249 -0 -28 -183 -90 -0 -167 -123 -76 -45 -13 -17 -64 -93 -224 -196 -53 -104 -103 -93 -56 -111 -128 -180 -128 -103 -0 -5 -0 -0 -5 -14
-47 -51 -59 -40 -72 -135 -56 -34 -71 -107 -120 -178 -88 -175 -127 -219 -181 -22 -117 -102 -64 -72 -158 -12 -0 -220 -302 -106 -77 -89 -123 -140 -123 -146 -106 -15 -11 -2 -2 -0 -0 -0 -20
-62 -47 -51 -41 -29 -66 -27 -41 -128 -0 -138 -0 -169 -0 -99 -150 -170 -138 -127 -84 -87 -184 -230 -277 -240 -195 -183 -80 -52 -79 -148 -187 -182 -125 -131 -17 -8 -0 -0 -0 -1 -0 -4
-71 -58 -65 -62 -54 -42 -29 -40 -145 -160 -184 -95 -0 -0 -139 -101 -142 -129 -117 -69 -84 -198 -188 -0 -288 -164 -131 -65 -29 -48 -98 -155 -166 -137 -154 -53 -0 -1 -0 -0 -0 -0 -1
-93 -98 -44 -40 -45 -41 -49 -41 -87 -78 -83 -91 -166 -103 -122 -105 -96 -174 -113 -106 -110 -274 -257 -0 -236 -258 -137 -125 -152 -66 -42 -114 -123 -145 -127 -97 -8 -0 -0 -0 -0 -0 -1
-79 -68 -43 -17 -66 -65 -55 -63 -69 -38 -87 -91 -73 -91 -124 -127 -124 -116 -115 -87 -87 -114 -166 -123 -63 -99 -135 -168 -166 -141 -65 -48 -114 -151 -175 -119 -82 -16 -0 -0 -0 -0 -1
-109 -75 -72 -40 -54 -62 -47 -45 -51 -44 -57 -57 -57 -73 -112 -106 -88 -120 -100 -62 -108 -137 -256 -173 -129 -156 -164 -186 -115 -121 -107 -60 -116 -92 -133 -142 -140 -114 -60 -2 -0 -0 -24
-131 -108 -66 -51 -66 -70 -58 -56 -49 -42 -53 -77 -57 -54 -60 -64 -90 -111 -64 -78 -129 -81 -90 -204 -185 -164 -113 -23 -83 -103 -148 -147 -83 -132 -141 -118 -148 -134 -129 -86 -35 -32 -2
-81 -82 -92 -53 -82 -88 -58 -72 -47 -62 -55 -41 -55 -58 -50 -77 -89 -68 -67 -74 -84 -71 -152 -0 -102 -167 -126 -288 -225 -181 -163 -112 -79 -87 -142 -128 -99 -125 -140 -146 -108 -90 -43
-118 -119 -121 -117 -117 -102 -82 -74 -68 -59 -72 -96 -39 -75 -37 -59 -68 -70 -67 -86 -112 -56 -34 -124 -64 -85 -157 -192 -0 -175 -121 -88 -107 -123 -139 -132 -116 -117 -110 -133 -116 -120 -134
-130 -133 -129 -87 -125 -98 -70 -67 -44 -46 -36 -71 -40 -31 -31 -57 -88 -64 -68 -146 -185 -82 -51 -55 -68 -186 -139 -165 -0 -173 -219 -148 -280 -151 -128 -120 -159 -117 -115 -115 -132 -135 -153
-82 -94 -97 -72 -88 -81 -76 -93 -67 -70 -82 -79 -71 -88 -91 -122 -91 -43 -114 -0 -0 -156 -147 -23 -75 -107 -126 -211 -179 -232 -199 -47 -0 -85 -141 -128 -140 -86 -107 -123 -128 -143 -155
-35 -47 -101 -108 -109 -86 -83 -116 -106 -77 -87 -61 -53 -69 -64 -110 -87 -24 -39 -96 -73 -73 -8 -7 -126 -39 -78 -110 -191 -137 -84 -175 -278 -227 -104 -129 -115 -213 -192 -215 -141 -94 -134
-165 -55 -116 -120 -100 -100 -79 -63 -84 -54 -68 -70 -92 -65 -48 -43 -54 -27 -23 -36 -36 -44 -40 -54 -36 -39 -48 -52 -90 -85 -150 -135 -219 -170 -264 -195 -154 -253 -0 -255 -167 -130 -107
Wind_Speed
10 14 19 17 19 20 19 17 16 15 16 16 18 18 18 18 18 17 17 17 14 11 10 11 10 10 10 12 13 14 16 16 16 16 16 16 14 12 20 20 19 13 18
17 14 20 18 18 19 19 18 16 16 16 14 16 16 16 16 16 16 15 15 13 10 9 10 10 10 9 10 12 12 14 13 12 14 16 15 13 12 17 20 19 14 18
16 14 15 19 18 19 18 17 17 18 17 15 14 15 15 14 14 13 14 12 11 9 8 8 8 8 9 9 10 12 12 12 12 13 11 4 6 16 17 20 19 18 18
18 13 13 18 18 18 18 16 16 18 17 16 15 15 14 13 12 10 10 8 8 7 6 5 7 7 8 9 10 12 11 11 11 12 3 4 5 14 15 17 18 18 19
19 13 14 19 19 19 18 16 16 16 17 17 14 15 14 12 11 9 7 6 6 4 5 5 7 9 8 10 10 13 12 12 9 6 4 4 4 10 16 17 17 17 18
19 15 16 19 21 20 19 18 17 17 18 17 16 16 15 13 11 8 6 5 4 5 4 5 5 7 8 10 12 13 15 11 9 2 3 4 3 10 11 14 15 17 17
18 15 14 19 21 20 19 20 19 18 18 16 15 13 13 11 9 7 6 3 4 4 5 5 7 8 8 12 13 13 10 10 4 4 4 3 5 10 12 13 16 15 15
19 15 13 19 20 20 20 20 19 18 17 13 12 12 11 10 8 4 2 1 1 4 6 7 7 9 10 13 14 12 10 8 3 3 2 2 2 17 17 14 16 15 15
18 16 10 11 17 20 20 20 18 17 16 15 12 10 9 8 6 2 2 0 2 5 5 6 7 8 10 12 13 13 11 10 4 3 5 3 4 20 18 16 16 17 15
16 15 8 7 7 7 10 19 18 15 16 15 11 9 8 6 3 0 1 2 4 6 7 8 8 7 9 13 15 15 14 12 5 5 4 3 7 20 20 19 16 17 18
14 14 13 10 9 6 7 10 14 14 14 14 10 9 6 2 1 2 2 6 8 9 9 9 8 11 12 12 13 13 13 3 6 5 2 8 8 16 22 20 20 18 17
13 12 13 12 12 9 7 6 5 6 4 4 4 3 4 3 1 1 3 8 9 9 9 8 8 10 11 3 4 11 4 3 3 4 3 12 12 15 20 22 21 20 17
14 7 9 13 11 9 6 6 4 3 3 3 5 3 2 2 1 2 2 3 3 7 2 0 4 2 6 4 6 4 1 3 2 5 7 12 15 17 18 21 22 23 19
11 10 10 8 10 8 4 5 7 5 3 3 3 5 3 2 2 2 3 3 2 1 2 1 2 4 7 6 8 7 6 6 4 4 7 14 16 16 16 17 26 22 20
12 10 12 9 7 8 6 5 6 6 5 4 4 4 3 3 3 3 3 2 2 4 3 2 3 6 6 5 9 8 8 6 5 2 3 17 15 16 17 19 22 20 20
13 12 7 9 7 7 5 6 5 5 6 5 4 5 5 3 3 3 5 2 4 4 4 3 3 6 4 4 7 7 9 9 7 7 5 7 15 15 16 18 19 19 20
13 11 8 10 9 8 7 6 5 4 5 4 4 6 7 5 4 5 4 4 8 6 3 0 3 4 5 4 7 5 4 7 8 7 6 6 8 15 14 15 17 18 18
15 13 10 11 11 10 7 5 5 5 5 4 4 5 7 6 6 3 4 4 2 4 3 4 3 4 3 4 4 5 4 4 8 8 8 7 6 6 10 14 15 15 16
13 13 10 8 13 10 8 6 6 6 4 6 4 5 6 6 5 4 4 3 3 3 2 2 2 3 2 1 2 4 4 1 8 9 9 8 9 8 6 12 13 14 15
12 12 8 7 8 8 6 5 3 4 3 4 4 4 6 6 6 4 4 4 2 1 1 2 3 2 1 1 1 5 3 5 3 7 9 8 7 7 7 7 7 7 14
11 14 13 10 8 8 4 3 3 4 3 3 4 6 6 5 5 4 3 2 2 3 5 5 4 6 2 4 3 5 4 6 4 3 5 5 6 8 7 7 4 3 6
15 10 8 7 12 7 4 3 3 4 3 4 3 4 5 6 5 4 4 4 2 2 5 3 2 2 3 3 4 2 3 4 3 3 3 5 9 7 7 8 8 7 6
14 13 10 10 12 8 7 4 2 2 2 2 3 3 4 6 5 5 7 4 3 2 2 3 3 4 3 1 4 4 2 4 2 3 4 2 4 8 7 9 10 10 8
10 13 12 10 8 8 8 7 6 5 5 4 4 3 4 5 6 5 6 4 5 2 1 2 2 3 4 1 1 3 2 4 3 2 3 2 1 4 8 6 8 9 9
12 13 12 11 9 9 8 7 6 5 4 3 4 6 5 5 7 6 6 6 4 4 3 4 5 2 3 2 2 1 3 2 2 3 1 3 3 2 1 2 3 6 10
6 12 13 13 9 11 9 8 8 7 6 4 5 6 4 4 4 7 7 6 6 4 3 3 2 1 2 2 2 2 2 4 2 2 1 3 3 2 1 5 4 1 4
Wind_Direction
146 137 139 140 134 131 133 130 119 110 103 102 100 99 96 94 94 94 94 93 99 100 98 90 82 83 87 89 90 94 98 103 104 106 108 107 109 113 111 108 105 102 106
140 139 141 144 139 135 134 131 128 122 114 106 103 101 101 100 100 99 95 103 106 105 98 95 92 85 91 97 102 99 107 103 105 111 114 110 107 130 120 116 114 113 110
135 139 141 144 144 138 136 137 135 128 125 120 114 109 106 103 102 105 111 109 110 111 117 109 105 104 108 114 120 115 111 116 119 113 106 78 98 118 113 117 113 114 115
131 135 137 143 141 140 139 142 139 133 132 128 127 126 123 120 115 111 105 112 120 132 128 127 128 128 126 133 136 134 138 138 141 131 74 135 122 125 123 121 116 116 116
132 132 140 143 144 144 145 138 133 133 132 134 134 134 137 133 128 132 137 140 145 167 160 174 170 152 148 143 143 144 148 154 148 103 131 151 117 142 132 127 123 123 120
123 130 139 144 147 146 147 145 141 138 134 133 132 137 126 121 116 104 124 150 174 195 196 198 181 163 172 161 157 155 155 146 129 100 145 169 129 153 147 136 139 128 127
122 130 138 142 146 146 145 140 141 141 136 141 146 147 131 130 130 111 99 125 191 199 205 193 194 186 189 183 173 176 163 154 153 169 123 110 173 159 154 144 132 135 133
126 129 136 139 143 146 145 145 143 149 147 147 146 141 137 131 131 122 99 56 199 197 205 199 194 196 190 188 187 187 202 223 242 219 208 187 231 164 168 155 141 140 141
126 126 136 139 139 139 141 143 145 155 151 147 151 156 145 130 117 125 124 213 205 204 210 202 209 198 193 197 198 214 237 242 222 226 215 159 266 174 172 158 151 148 146
131 131 140 131 115 123 142 149 142 143 153 157 164 172 146 134 135 70 219 282 234 206 213 205 197 208 210 216 220 227 237 239 214 226 202 176 195 175 179 175 163 158 151
137 141 146 142 135 136 133 154 151 153 164 158 157 164 147 101 195 297 288 262 214 213 219 218 213 222 226 232 236 235 242 204 210 222 167 180 187 190 177 175 176 164 156
140 148 153 155 152 150 158 141 149 148 125 139 157 127 117 137 241 174 335 280 263 236 230 232 233 243 248 217 271 256 226 200 218 224 201 188 201 215 184 179 181 172 161
152 141 160 161 150 160 168 158 151 127 143 173 167 126 168 181 222 51 296 278 234 259 265 14 278 295 278 237 226 224 289 284 226 194 218 217 217 200 185 194 190 177 172
152 167 159 154 136 172 165 154 147 153 168 176 184 175 184 182 226 245 244 247 251 171 160 1 278 288 265 281 245 210 176 214 215 195 205 194 188 182 180 178 184 180 182
162 167 166 162 161 173 157 145 147 162 175 177 176 191 224 174 226 269 266 257 280 150 233 245 295 282 288 253 250 196 183 217 234 150 147 171 180 182 173 166 172 184 190
157 161 156 158 165 151 148 154 161 161 178 170 177 187 215 208 196 252 266 264 150 197 180 226 224 256 284 250 263 223 170 202 190 139 141 163 191 186 178 169 169 183 195
158 159 164 153 155 150 166 164 156 172 169 175 181 184 199 219 211 244 263 254 164 207 193 224 238 345 259 357 339 283 223 147 151 128 151 159 181 190 190 176 172 176 185
145 158 168 161 160 160 169 173 160 179 186 178 185 191 203 211 228 235 275 293 178 122 157 181 108 357 331 12 3 303 279 140 137 152 157 164 171 176 180 175 173 177 184
151 160 169 154 162 171 158 153 168 181 184 186 183 195 201 218 229 220 270 270 52 160 125 185 114 151 191 327 34 311 320 235 156 168 159 174 177 169 175 183 179 180 188
169 158 169 177 157 157 141 142 154 165 179 180 186 193 192 213 223 208 251 267 204 191 178 289 150 228 49 179 174 278 10 310 224 161 172 175 185 171 169 183 185 194 199
150 165 167 162 157 140 157 142 164 180 184 186 186 184 201 216 214 207 243 2 327 187 226 217 156 168 135 197 33 344 319 251 313 183 161 179 179 174 179 173 182 181 201
164 172 168 169 153 162 162 158 158 168 202 185 165 178 205 224 233 200 217 207 213 164 204 255 75 95 73 187 146 119 359 333 7 348 97 158 178 178 183 180 181 190 192
166 176 174 171 171 170 167 150 143 157 137 132 141 165 213 221 229 241 209 200 215 165 190 203 130 119 154 202 211 129 131 234 6 299 290 298 193 177 183 188 193 197 193
183 171 167 164 159 152 157 159 169 169 172 186 166 171 204 228 255 225 197 196 223 117 172 218 208 165 120 6 331 251 133 115 148 289 325 312 272 226 191 199 200 201 191
191 177 168 159 157 156 157 165 177 175 185 156 162 181 208 213 230 233 201 214 232 170 196 263 290 177 149 142 196 348 112 85 50 131 178 308 38 35 48 19 207 223 189
194 159 162 160 162 157 163 169 180 194 198 170 168 187 184 219 224 219 202 200 193 195 212 256 224 163 212 188 201 73 130 134 202 181 163 236 232 310 313 285 330 131 226